Tracking 28790 objects as of 19-Apr-2024
HD Live streaming from Space Station
objects crossing your sky now

FENGYUN 1C DEB

Track FENGYUN 1C DEB now!
10-day predictions


NORAD ID: 31535
Int'l Code: 1999-025BYA
Perigee: 749.9 km
Apogee: 883.3 km
Inclination: 98.1 °
Period: 101.1 minutes
Semi major axis: 7187 km
RCS: 0.0151 m2 (small)
Launch date: May 10, 1999
Source: People's Republic of China (PRC)
Launch site: Taiyaun Space Center, China (TSC)

Note: This is SATELLITE DEBRIS
Your satellite tracking list
Your tracking list is empty




NASA's NSSDC Master Catalog

Two Line Element Set (TLE):
1 31535U 99025BYA 24107.47021675  .00003225  00000-0  13403-2 0  9993
2 31535  98.1065 358.0618 0092751 157.5384 202.9899 14.24709734633008
Source of the keplerian elements: AFSPC